North Bend, OR

10:59 AM PDT on May 22, 2017 (GMT -0700)
North Bend Municipal

Weather History for KOTH - October, 2012

Change the Weather History Date:

Tuesday, October 9, 2012

  Actual Average Record
Temperature  
Mean Temperature 55 °F 54 °F  
Max Temperature 63 °F 62 °F 85 °F (1907)
Min Temperature 46 °F 47 °F 32 °F (1919)
Degree Days  
Heating Degree Days 10 11  
Month to date heating degree days 95 92  
Since 1 July heating degree days 694 700  
Cooling Degree Days 0 0  
Month to date cooling degree days 0 0  
Year to date cooling degree days 0 2  
Growing Degree Days 4 (Base 50)    
Moisture  
Dew Point 48 °F    
Average Humidity 83    
Maximum Humidity 100    
Minimum Humidity 60    
Precipitation  
Precipitation 0.00 in 0.11 in 3.99 in (1955)
Month to date precipitation 0.00 0.84  
Year to date precipitation 28.80 39.66  
Sea Level Pressure  
Sea Level Pressure 30.07 in    
Wind  
Wind Speed 7 mph (NE)    
Max Wind Speed 16 mph    
Max Gust Speed 20 mph    
Visibility 10 miles    
Events      
T = Trace of Precipitation, MM = Missing Value Source: NWS Daily Summary

Daily Weather History Graph

Daily Weather History Graph

Search for Another Location

Airport or City:

Trip Planner

Search our weather history database for the weather conditions in past years. The results will help you decide how hot, cold, wet, or windy it might be!

Date:

Astronomy

Oct. 09, 2012 Rise Set
Actual Time 7:24 AM PDT 6:42 PM PDT
Civil Twilight 6:55 AM PDT 7:11 PM PDT
Nautical Twilight 6:22 AM PDT 7:44 PM PDT
Astronomical Twilight 5:49 AM PDT 8:17 PM PDT
Moon 12:56 AM PDT (10/9) 3:22 PM PDT (10/9)
Length of Visible Light 12h 15m
Length of Day
11h 18m
Waning Crescent, 35% of the Moon is Illuminated
Oct 9
Waning Crescent
Oct 15
New
Oct 21
First Quarter
Oct 29
Full
Nov 6
Last Quarter

Hourly Weather History & Observations

Time (PDT) Temp. Windchill Dew Point Humidity Pressure Visibility Wind Dir Wind Speed Gust Speed Precip Events Conditions
12:15 AM 53.6 °F - 51.8 °F 94% 30.09 in 10.0 mi SE 6.9 mph - N/A   Overcast
12:55 AM 53.6 °F - 50.0 °F 88% 30.09 in 10.0 mi SE 5.8 mph - N/A   Overcast
1:15 AM 51.8 °F - 48.2 °F 88% 30.08 in 10.0 mi SE 5.8 mph - N/A   Mostly Cloudy
1:35 AM 50.0 °F - 48.2 °F 94% 30.09 in 10.0 mi SSE 3.5 mph - N/A   Partly Cloudy
1:55 AM 50.0 °F - 48.2 °F 94% 30.09 in 10.0 mi East 3.5 mph - N/A   Clear
2:15 AM 50.0 °F - 48.2 °F 94% 30.09 in 10.0 mi ESE 3.5 mph - N/A   Clear
2:35 AM 48.2 °F - 48.2 °F 100% 30.10 in 10.0 mi SE 4.6 mph - N/A   Partly Cloudy
2:55 AM 48.2 °F - 48.2 °F 100% 30.10 in 10.0 mi SE 5.8 mph - N/A   Partly Cloudy
3:15 AM 48.2 °F - 46.4 °F 93% 30.09 in 10.0 mi SSE 4.6 mph - N/A   Mostly Cloudy
3:35 AM 48.2 °F - 48.2 °F 100% 30.09 in 10.0 mi SE 5.8 mph - N/A   Overcast
3:55 AM 48.2 °F - 48.2 °F 100% 30.09 in 10.0 mi SSE 5.8 mph - N/A   Mostly Cloudy
4:15 AM 48.2 °F - 46.4 °F 93% 30.09 in 10.0 mi SE 5.8 mph - N/A   Partly Cloudy
4:35 AM 46.4 °F 43.5 °F 44.6 °F 93% 30.09 in 10.0 mi SSE 5.8 mph - N/A   Scattered Clouds
4:55 AM 48.2 °F - 48.2 °F 100% 30.09 in 10.0 mi SE 6.9 mph - N/A   Overcast
5:15 AM 50.0 °F - 48.2 °F 94% 30.09 in 10.0 mi SSE 5.8 mph - N/A   Overcast
5:55 AM 50.0 °F - 48.2 °F 94% 30.09 in 10.0 mi SSE 5.8 mph - N/A   Overcast
6:15 AM 50.0 °F - 48.2 °F 94% 30.10 in 10.0 mi SE 5.8 mph - N/A   Overcast
6:55 AM 50.0 °F - 48.2 °F 94% 30.10 in 10.0 mi SE 3.5 mph - N/A   Overcast
8:15 AM 51.8 °F - 48.2 °F 88% 30.09 in 10.0 mi SSE 4.6 mph - N/A   Overcast
8:35 AM 51.8 °F - 48.2 °F 88% 30.09 in 10.0 mi SSE 3.5 mph - N/A   Mostly Cloudy
8:55 AM 53.6 °F - 48.2 °F 82% 30.09 in 10.0 mi SE 4.6 mph - N/A   Partly Cloudy
9:15 AM 53.6 °F - 48.2 °F 82% 30.09 in 10.0 mi SE 5.8 mph - N/A   Clear
9:35 AM 55.4 °F - 48.2 °F 77% 30.09 in 10.0 mi SE 4.6 mph - N/A   Clear
9:55 AM 55.4 °F - 48.2 °F 77% 30.09 in 10.0 mi SE 4.6 mph - N/A   Clear
10:15 AM 57.2 °F - 48.2 °F 72% 30.09 in 10.0 mi SE 3.5 mph - N/A   Clear
10:35 AM 59.0 °F - 48.2 °F 67% 30.09 in 10.0 mi ESE 3.5 mph - N/A   Clear
10:55 AM 59.0 °F - 48.2 °F 67% 30.09 in 10.0 mi ENE 3.5 mph - N/A   Clear
11:15 AM 59.0 °F - 48.2 °F 67% 30.09 in 10.0 mi Calm Calm - N/A   Clear
11:35 AM 60.8 °F - 50.0 °F 68% 30.08 in 10.0 mi Calm Calm - N/A   Clear
11:55 AM 60.8 °F - 50.0 °F 68% 30.08 in 10.0 mi WNW 5.8 mph - N/A   Clear
12:15 PM 60.8 °F - 50.0 °F 68% 30.08 in 10.0 mi NNW 6.9 mph - N/A   Clear
12:35 PM 60.8 °F - 50.0 °F 68% 30.08 in 10.0 mi NW 6.9 mph - N/A   Clear
12:55 PM 60.8 °F - 48.2 °F 63% 30.07 in 10.0 mi NW 9.2 mph - N/A   Clear
1:15 PM 62.6 °F - 48.2 °F 59% 30.07 in 10.0 mi NNW 10.4 mph - N/A   Clear
1:55 PM 62.6 °F - 48.2 °F 59% 30.06 in 10.0 mi NW 12.7 mph - N/A   Clear
2:15 PM 62.6 °F - 48.2 °F 59% 30.05 in 10.0 mi NNW 12.7 mph - N/A   Clear
2:35 PM 60.8 °F - 48.2 °F 63% 30.05 in 10.0 mi North 13.8 mph - N/A   Clear
2:55 PM 60.8 °F - 48.2 °F 63% 30.05 in 10.0 mi NNW 12.7 mph - N/A   Clear
3:15 PM 60.8 °F - 48.2 °F 63% 30.04 in 10.0 mi North 16.1 mph - N/A   Clear
3:35 PM 60.8 °F - 48.2 °F 63% 30.04 in 10.0 mi North 13.8 mph - N/A   Clear
3:55 PM 60.8 °F - 48.2 °F 63% 30.04 in 10.0 mi North 15.0 mph - N/A   Clear
4:15 PM 59.0 °F - 48.2 °F 67% 30.04 in 10.0 mi North 15.0 mph - N/A   Clear
4:35 PM 57.2 °F - 48.2 °F 72% 30.04 in 10.0 mi North 15.0 mph - N/A   Clear
4:55 PM 57.2 °F - 48.2 °F 72% 30.04 in 10.0 mi North 16.1 mph 19.6 mph N/A   Clear
5:15 PM 57.2 °F - 48.2 °F 72% 30.04 in 10.0 mi North 16.1 mph 21.9 mph N/A   Clear
5:35 PM 55.4 °F - 48.2 °F 77% 30.04 in 10.0 mi North 11.5 mph - N/A   Clear
5:55 PM 55.4 °F - 48.2 °F 77% 30.04 in 10.0 mi North 13.8 mph - N/A   Clear
6:15 PM 55.4 °F - 50.0 °F 82% 30.03 in 10.0 mi North 12.7 mph - N/A   Clear
6:35 PM 53.6 °F - 48.2 °F 82% 30.03 in 10.0 mi North 11.5 mph - N/A   Clear
6:55 PM 53.6 °F - 48.2 °F 82% 30.03 in 10.0 mi North 13.8 mph 19.6 mph N/A   Clear
7:15 PM 53.6 °F - 50.0 °F 88% 30.03 in 10.0 mi North 15.0 mph - N/A   Clear
7:35 PM 53.6 °F - 50.0 °F 88% 30.04 in 10.0 mi North 9.2 mph - N/A   Clear
7:55 PM 51.8 °F - 50.0 °F 94% 30.05 in 10.0 mi North 4.6 mph - N/A   Clear
8:15 PM 51.8 °F - 48.2 °F 88% 30.05 in 10.0 mi North 5.8 mph - N/A   Clear
8:35 PM 51.8 °F - 48.2 °F 88% 30.05 in 10.0 mi North 4.6 mph - N/A   Clear
8:55 PM 51.8 °F - 50.0 °F 94% 30.05 in 10.0 mi NW 6.9 mph - N/A   Clear
9:15 PM 50.0 °F - 48.2 °F 94% 30.05 in 10.0 mi NNW 5.8 mph - N/A   Clear
9:35 PM 50.0 °F - 48.2 °F 94% 30.06 in 10.0 mi North 3.5 mph - N/A   Clear
9:55 PM 50.0 °F - 48.2 °F 94% 30.07 in 10.0 mi NNE 4.6 mph - N/A   Clear
10:15 PM 48.2 °F - 46.4 °F 93% 30.06 in 9.0 mi NNE 4.6 mph - N/A   Clear
10:35 PM 48.2 °F - 46.4 °F 93% 30.07 in 9.0 mi Calm Calm - N/A   Clear
10:55 PM 50.0 °F - 48.2 °F 94% 30.07 in 10.0 mi North 3.5 mph - N/A   Clear
11:15 PM 48.2 °F - 48.2 °F 100% 30.06 in 10.0 mi North 3.5 mph - N/A   Clear
11:35 PM 48.2 °F - 48.2 °F 100% 30.06 in 10.0 mi NNE 3.5 mph - N/A   Clear
11:55 PM 48.2 °F - 48.2 °F 100% 30.06 in 10.0 mi Calm Calm - N/A   Clear